HB9EKO-12 Weather Reports


time (UTC)temp
C
wind
direction
speed
KPH
gust
KPH
rain 1hr
cm
rain 24hr
cm
rain mn
cm
humidity
%
barometer
mb
20260510183005 15 0 0.0 0.0 0.00 0.00 0.00 97 1010.0
20260510181459 16 0 0.0 0.0 0.00 0.00 0.00 94 1010.0
20260510175954 15 0 0.0 0.0 0.00 0.00 0.00 94 1010.0
20260510174449 15 0 3.2 0.0 0.00 0.00 0.00 93 1010.0
20260510172944 15 0 1.6 0.0 0.00 0.00 0.00 90 1010.0
20260510171439 16 0 0.0 0.0 0.00 0.00 0.00 87 1010.0
20260510165933 16 0 0.0 0.0 0.00 0.00 0.00 89 1010.0
20260510164428 15 0 0.0 0.0 0.00 0.00 0.00 90 1010.0
20260510162923 15 0 0.0 0.0 0.00 0.00 0.00 88 1010.0
20260510161418 16 0 0.0 0.0 0.00 0.00 0.00 82 1010.0
20260510155912 16 0 6.4 0.0 0.00 0.00 0.00 74 1010.0
20260510154407 17 0 12.9 0.0 0.00 0.00 0.00 64 1010.0
20260510152902 18 0 6.4 0.0 0.00 0.00 0.00 63 1009.0
20260510151357 18 0 1.6 0.0 0.00 0.00 0.00 61 1009.0
20260510145851 19 0 8.0 0.0 0.00 0.00 0.00 56 1009.0
20260510144346 20 0 11.3 0.0 0.00 0.00 0.00 54 1009.0
20260510142841 20 0 12.9 0.0 0.00 0.00 0.00 53 1009.0
20260510141336 21 0 1.6 0.0 0.00 0.00 0.00 50 1009.0
20260510135830 21 0 1.6 0.0 0.00 0.00 0.00 48 1009.0
20260510134325 22 0 4.8 0.0 0.00 0.00 0.00 46 1009.0
20260510132820 22 0 6.4 0.0 0.00 0.00 0.00 44 1009.0
20260510131315 22 0 1.6 0.0 0.00 0.00 0.00 44 1009.0
20260510125809 22 0 3.2 0.0 0.00 0.00 0.00 45 1009.0
20260510124304 21 0 0.0 0.0 0.00 0.00 0.00 48 1009.0
20260510122759 21 0 8.0 0.0 0.00 0.00 0.00 47 1009.0
20260510121254 21 0 0.0 0.0 0.00 0.00 0.00 47 1010.0
20260510115748 22 0 0.0 0.0 0.00 0.00 0.00 44 1010.0
20260510114243 21 0 0.0 0.0 0.00 0.00 0.00 45 1010.0
20260510112738 21 0 0.0 0.0 0.00 0.00 0.00 45 1010.0
20260510111233 22 0 0.0 0.0 0.00 0.00 0.00 43 1010.0
20260510105728 22 0 0.0 0.0 0.00 0.00 0.00 43 1010.0
20260510104222 21 0 1.6 0.0 0.00 0.00 0.00 44 1010.0
20260510102717 21 0 3.2 0.0 0.00 0.00 0.00 43 1010.0
20260510101212 21 0 0.0 0.0 0.00 0.00 0.00 45 1011.0
20260510095707 21 0 1.6 0.0 0.00 0.00 0.00 44 1011.0
20260510094201 21 0 8.0 0.0 0.00 0.00 0.00 46 1011.0
20260510092656 20 0 9.7 0.0 0.00 0.00 0.00 50 1011.0
20260510091151 20 0 0.0 0.0 0.00 0.00 0.00 51 1011.0
20260510085646 20 0 0.0 0.0 0.00 0.00 0.00 52 1011.0
20260510084140 19 0 1.6 0.0 0.00 0.00 0.00 54 1011.0
20260510082635 18 0 0.0 0.0 0.00 0.00 0.00 56 1011.0
20260510081130 18 0 0.0 0.0 0.00 0.00 0.00 58 1011.0
20260510075625 17 0 0.0 0.0 0.00 0.00 0.00 60 1011.0
20260510074119 17 0 0.0 0.0 0.00 0.00 0.00 63 1011.0
20260510072614 16 0 3.2 0.0 0.00 0.00 0.00 66 1011.0
20260510071109 16 0 0.0 0.0 0.00 0.00 0.00 67 1011.0
20260510065604 15 0 0.0 0.0 0.00 0.00 0.00 66 1011.0
20260510064058 15 0 0.0 0.0 0.00 0.00 0.00 70 1012.0
20260510062553 14 0 0.0 0.0 0.00 0.00 0.00 73 1012.0
20260510061048 13 0 0.0 0.0 0.00 0.00 0.00 77 1012.0
20260510055543 12 0 0.0 0.0 0.00 0.00 0.00 83 1012.0
20260510054038 12 0 0.0 0.0 0.00 0.00 0.00 85 1012.0
20260510052532 11 0 0.0 0.0 0.00 0.00 0.00 87 1012.0
20260510051027 11 0 0.0 0.0 0.00 0.00 0.00 88 1012.0
20260510045522 11 0 0.0 0.0 0.00 0.00 0.00 85 1012.0
20260510044017 11 0 0.0 0.0 0.00 0.00 0.00 87 1012.0
20260510042511 10 0 0.0 0.0 0.00 0.00 0.00 86 1012.0
20260510041006 11 0 0.0 0.0 0.00 0.00 0.00 85 1012.0
20260510035501 11 0 0.0 0.0 0.00 0.00 0.00 83 1012.0
20260510033956 11 0 0.0 0.0 0.00 0.00 0.00 83 1012.0
20260510032450 11 0 0.0 0.0 0.00 0.00 0.00 83 1012.0
20260510030945 12 0 0.0 0.0 0.00 0.00 0.00 79 1012.0
20260510025440 11 0 0.0 0.0 0.00 0.00 0.00 80 1013.0
20260510023935 12 0 0.0 0.0 0.00 0.00 0.00 79 1013.0
20260510022429 12 0 0.0 0.0 0.00 0.00 0.00 78 1013.0
20260510020924 12 0 0.0 0.0 0.00 0.00 0.00 79 1013.0
20260510015419 12 0 0.0 0.0 0.00 0.00 0.00 78 1013.0
20260510013914 12 0 0.0 0.0 0.00 0.00 0.00 77 1013.0
20260510012408 12 0 0.0 0.0 0.00 0.00 0.00 78 1013.0
20260510010903 13 0 0.0 0.0 0.00 0.00 0.00 75 1013.0
20260510005358 12 0 0.0 0.0 0.00 0.00 0.00 76 1013.0
20260510003853 12 0 0.0 0.0 0.00 0.00 0.00 73 1013.0
20260510002348 13 0 0.0 0.0 0.00 0.00 0.00 72 1013.0
20260510000842 13 0 0.0 0.0 0.00 0.00 0.00 71 1013.0
20260509235337 13 0 0.0 0.0 0.00 0.00 0.00 68 1013.0
20260509233832 15 0 0.0 0.0 0.00 0.00 0.00 66 1013.0
20260509232327 14 0 0.0 0.0 0.00 0.00 0.00 67 1013.0
20260509230821 13 0 0.0 0.0 0.00 0.00 0.00 68 1013.0
20260509225316 14 0 0.0 0.0 0.00 0.00 0.00 66 1013.0
20260509223811 14 0 0.0 0.0 0.00 0.00 0.00 64 1013.0
20260509222307 15 0 0.0 0.0 0.00 0.00 0.00 61 1013.0
20260509220800 15 0 0.0 0.0 0.00 0.00 0.00 60 1014.0
20260509215255 15 0 0.0 0.0 0.00 0.00 0.00 58 1013.0
20260509213750 16 0 0.0 0.0 0.00 0.00 0.00 54 1014.0
20260509212245 16 0 0.0 0.0 0.00 0.00 0.00 55 1013.0
20260509210739 16 0 0.0 0.0 0.00 0.00 0.00 55 1014.0
20260509205234 17 0 0.0 0.0 0.00 0.00 0.00 50 1013.0
20260509203729 17 0 0.0 0.0 0.00 0.00 0.00 47 1013.0
20260509202224 17 0 0.0 0.0 0.00 0.00 0.00 46 1013.0
20260509200718 17 0 0.0 0.0 0.00 0.00 0.00 44 1013.0
20260509195213 18 0 0.0 0.0 0.00 0.00 0.00 43 1014.0
20260509193708 18 0 0.0 0.0 0.00 0.00 0.00 43 1013.0
20260509192203 19 0 0.0 0.0 0.00 0.00 0.00 40 1013.0
20260509190658 20 0 0.0 0.0 0.00 0.00 0.00 38 1013.0
20260509185152 21 0 0.0 0.0 0.00 0.00 0.00 35 1013.0